Theta_e
312 313 313 311 310 310 309 309 308 308 308 307 307 307 307 308 308 309 310 313 321 325 327 330 331 333 333 335 336 337 336 339
310 310 310 309 309 308 308 307 307 307 307 307 307 307 306 306 306 306 306 306 306 307 310 316 323 324 327 332 334 335 336 339
309 309 308 308 307 307 307 306 306 306 306 306 306 305 305 305 305 305 304 305 305 305 305 306 307 309 312 317 324 331 332 334
307 307 307 307 306 306 305 305 305 305 304 304 304 303 303 303 303 303 303 304 303 304 304 303 304 304 305 306 308 312 322 331
305 306 306 305 305 304 304 304 303 303 303 302 302 302 302 302 301 301 301 301 302 301 301 302 302 302 303 304 306 307 310 313
304 304 304 304 304 303 303 302 302 301 301 301 301 300 299 299 298 298 298 298 298 298 299 299 300 300 301 302 303 305 307 309
303 303 303 303 303 302 302 301 301 300 300 299 298 297 297 297 296 296 295 295 295 296 297 298 298 299 300 301 302 303 304 304
302 302 302 302 302 301 300 300 299 298 297 296 296 295 295 295 295 294 294 294 294 295 295 296 297 298 299 300 300 301 302 303
301 301 300 300 300 299 298 297 297 296 295 295 295 295 294 294 293 293 293 293 293 295 295 296 296 297 298 298 299 300 301 302
300 299 299 299 298 297 296 296 295 294 294 294 294 294 294 293 292 291 291 292 293 293 294 295 295 296 297 298 299 299 300 301
298 298 298 297 297 296 295 294 293 293 292 292 293 294 293 292 291 290 290 291 292 292 293 293 294 295 296 297 299 300 301 302
298 297 297 296 296 294 293 293 292 292 291 291 292 293 292 291 290 290 290 291 291 291 291 292 294 294 294 297 298 301 303 304
297 297 296 296 295 294 293 292 291 291 290 290 290 290 291 290 289 289 289 290 289 290 290 291 293 292 294 296 300 304 304 301
295 295 295 295 295 294 292 291 290 289 289 288 288 288 289 289 288 287 287 289 288 288 288 289 291 291 291 295 301 303 301 300
294 294 294 294 293 292 291 289 289 289 288 287 286 286 287 287 287 286 286 287 287 287 286 287 288 290 291 291 296 298 295 302
293 293 292 292 292 291 289 289 289 287 286 285 284 284 284 285 285 285 285 285 285 285 285 285 286 288 288 288 289 290 296 297
292 291 291 291 289 288 287 286 286 285 284 284 283 282 282 283 284 284 284 284 284 284 284 284 284 285 286 286 289 290 291 292
292 291 290 289 288 285 284 285 285 285 284 283 282 282 281 281 282 282 282 283 283 283 284 284 283 284 284 285 286 288 288 289
291 290 288 286 283 283 283 283 283 283 283 283 282 282 281 281 281 281 281 281 281 282 282 283 283 283 284 284 285 285 286 286
291 289 287 283 283 283 282 282 282 282 282 282 281 281 280 280 280 280 280 280 280 280 281 282 282 283 283 284 284 283 284 284
Wind_Speed
14 14 14 16 14 13 12 12 12 10 9 8 8 6 6 6 6 8 7 7 9 9 10 11 12 12 12 12 15 15 14 13
15 13 12 12 12 12 12 12 11 11 10 9 8 7 6 7 8 10 9 11 11 12 13 13 13 13 14 15 15 15 14 15
13 12 12 11 11 12 12 12 11 11 11 11 9 9 9 9 10 10 12 12 13 14 15 15 15 15 17 17 16 16 16 16
12 12 11 10 11 11 10 11 11 12 11 11 11 11 11 11 12 12 12 13 15 14 16 17 16 15 15 15 13 16 17 19
13 12 11 10 10 10 10 10 10 11 11 12 12 12 13 13 14 15 16 18 16 17 16 14 16 16 16 14 14 14 14 15
13 12 12 11 10 10 10 11 11 12 13 13 13 13 13 13 13 14 15 17 17 16 15 16 16 16 15 16 15 14 14 16
14 12 11 10 9 10 10 11 11 12 12 14 14 13 12 13 13 13 14 14 14 14 15 16 16 16 15 15 15 15 16 18
12 11 10 9 10 9 10 10 10 10 12 13 14 14 15 13 13 14 14 15 14 13 14 15 15 16 16 15 16 17 17 18
12 11 9 8 10 9 9 10 10 11 12 15 16 17 15 14 13 14 15 14 15 15 14 13 14 15 16 17 17 17 17 18
10 9 9 9 9 9 10 10 12 12 13 14 16 18 18 15 14 15 16 15 15 16 17 17 16 16 18 18 19 19 19 18
11 9 9 9 9 10 11 12 13 13 13 14 16 17 18 16 16 15 15 15 16 18 18 18 19 18 20 20 18 18 15 13
10 9 9 9 10 10 11 12 13 13 14 15 16 16 17 17 16 16 15 16 17 19 19 18 16 19 22 18 19 11 5 8
10 9 9 8 6 6 7 8 9 11 12 14 15 16 16 17 15 16 15 16 18 19 19 20 16 22 16 19 11 5 5 14
9 8 7 6 6 8 5 6 9 9 10 11 13 14 16 16 17 16 16 14 16 19 20 21 15 20 13 12 6 3 9 19
9 9 8 9 9 10 8 6 6 6 8 9 12 14 15 15 16 15 14 14 15 16 17 19 17 15 12 9 4 3 14 6
9 8 8 6 4 4 4 5 4 4 6 8 10 13 14 15 15 15 13 13 15 15 15 15 16 17 12 15 7 9 3 5
10 9 9 7 5 5 6 9 8 5 7 8 11 12 13 14 14 14 14 13 13 13 15 17 15 14 15 17 12 12 6 6
11 11 10 8 6 6 8 10 7 7 8 8 10 8 12 14 13 13 13 13 14 13 13 15 15 13 14 13 12 7 13 8
10 9 9 9 10 10 10 10 10 9 8 9 8 10 12 13 13 13 13 13 13 12 13 13 15 16 16 14 11 10 11 10
11 11 10 11 10 11 10 9 9 9 11 8 9 10 11 12 12 12 14 15 13 13 13 14 15 16 17 16 13 11 10 10
Wind_Direction
115 106 101 96 92 89 87 85 82 79 79 73 60 37 21 8 6 10 345 321 298 288 291 292 294 294 288 286 273 273 272 267
107 104 97 91 84 82 84 87 88 85 76 62 54 39 32 21 11 354 341 342 334 316 291 284 282 289 287 282 278 276 282 272
106 107 105 102 103 92 84 79 75 64 56 50 41 31 19 9 356 347 346 332 323 320 317 300 296 284 281 280 279 273 274 270
110 113 111 108 97 92 87 77 66 58 49 40 32 25 18 7 356 347 338 332 332 322 317 318 310 305 303 292 288 277 269 264
107 108 111 112 109 102 91 79 65 54 44 35 25 13 6 1 355 351 348 344 339 335 330 324 319 315 306 304 302 297 284 273
110 113 116 110 106 91 77 63 53 42 29 23 18 15 10 9 6 2 358 352 347 344 336 330 323 317 312 305 298 295 289 281
118 119 114 103 90 77 68 55 44 36 27 22 24 24 19 16 11 7 3 359 353 348 342 335 328 320 314 311 306 297 289 285
112 107 101 98 91 85 74 61 51 44 41 36 32 31 26 19 15 12 8 0 356 352 348 340 332 326 320 313 305 299 292 286
110 104 100 97 91 84 77 70 62 56 50 42 39 36 30 29 22 18 10 6 359 355 351 344 335 328 321 316 308 300 295 293
113 110 106 100 96 92 85 77 72 66 57 49 44 40 36 35 29 19 10 8 7 3 353 349 343 337 328 319 309 302 297 294
116 115 112 106 99 92 86 80 74 66 56 47 42 40 38 38 31 20 17 16 13 2 357 350 344 341 330 319 310 306 306 306
124 123 122 115 105 95 89 81 71 64 55 47 43 38 34 33 29 23 23 20 12 7 357 354 347 342 332 325 315 314 326 359
136 141 140 132 115 98 87 79 66 59 51 43 40 37 34 29 24 23 23 24 17 10 1 358 357 353 343 342 341 345 34 356
123 129 144 154 151 135 118 102 81 72 58 44 38 33 33 30 26 20 21 21 20 16 12 2 359 4 349 322 347 336 340 335
127 125 123 122 126 130 119 106 87 59 41 36 29 31 30 31 29 21 21 24 20 20 16 11 357 3 17 16 339 334 331 328
127 121 116 116 128 139 132 98 86 65 53 45 38 34 30 31 32 28 26 26 21 20 20 16 8 2 6 355 326 301 328 318
145 132 119 120 125 123 106 98 99 96 77 63 48 39 38 36 34 33 28 27 24 23 28 27 23 10 2 353 343 333 43 307
148 144 130 136 134 120 110 109 115 95 76 64 56 42 41 38 35 36 33 29 25 23 28 31 28 20 11 3 354 351 330 329
154 146 143 138 128 114 106 108 106 99 92 73 64 50 42 37 38 34 37 32 31 28 32 31 27 23 17 10 2 356 339 322
160 160 150 137 128 113 109 107 103 96 82 85 74 61 50 46 45 43 43 39 34 33 33 31 27 24 18 16 12 7 358 344